Flag for Germany Weather past 2 weeks in Wismar, Mecklenburg-Western Pomerania, Germany

Now
36 °F

Overcast.


Feels Like: 33 °F
Forecast: 34 / 47 °F
Wind: 5 mph from Northwest

Location: Schwerin

Current Time: Feb 28, 2015 at 1:50:15 AM

Latest Report: Feb 28, 2015 at 1:00 AM


Visibility: 10 mi

Pressure: 30.04 "Hg

Humidity: 92%

Dew point: 35 °F

Location of WismarLocation

Historic Weather in Wismar — Graph

°F

Wismar temperature yesterday

Maximum temperature yesterday: 40 °F (at 2:00 PM)
Minimum temperature yesterday: 34 °F (at 7:00 AM)
Average temperature yesterday: 37 °F

Past Weeks' High & Low Weather Summary

 TemperatureHumidityPressure
High49 °F (Feb 26, 3:00 PM)100% (Feb 14, 12:00 AM)30.69 "Hg (Feb 14, 12:00 AM)
Low27 °F (Feb 17, 8:00 AM)45% (Feb 26, 5:00 PM)29.23 "Hg (Feb 21, 1:00 PM)
Average36 °F84%29.97 "Hg
* Reported Midnight between Feb 12 and Feb 13 — Midnight between Feb 27 and Feb 28, Wismar, Weather by CustomWeather, © 2015

Note: Actual official high and low records may vary slightly from our data, if they occured in-between our weather recording intervals... More about our weather records

Advertising

Wismar weather history for previous 24 hours

 ConditionsComfort  
Time TempWeatherWind HumidityBarometerVisibility
12:00 AM
Sat, Feb 28
38 °FLow clouds.5 mph95%30.03 "Hg5 mi
11:00 PM
Fri, Feb 27
37 °FOvercast.3 mph95%30.01 "Hg5 mi
9:00 PM38 °FDrizzle. Low clouds.3 mph96%29.98 "Hg2 mi
8:00 PM38 °FLight freezing rain. Low clouds.3 mph98%29.97 "Hg3 mi
7:00 PM37 °FLight freezing rain. Overcast.2 mph98%29.96 "Hg1 mi
6:00 PM37 °FLight freezing rain. Overcast.2 mph97%29.94 "Hg1 mi
5:00 PM37 °FLight rain. Low clouds.2 mph94%29.93 "Hg2 mi
3:00 PM40 °FDrizzle. Overcast.3 mph75%29.89 "Hg6 mi
2:00 PM40 °FOvercast.3 mph73%29.88 "Hg7 mi
1:00 PM39 °FOvercast.3 mph72%29.88 "Hg7 mi
12:00 PM39 °FOvercast.2 mph67%29.88 "Hg8 mi
11:00 AM37 °FOvercast.2 mph69%29.87 "Hg8 mi
10:00 AM36 °FOvercast.2 mph69%29.86 "Hg9 mi
9:00 AM36 °FOvercast.2 mph68%29.85 "Hg9 mi
8:00 AM35 °FOvercast.3 mph71%29.84 "Hg8 mi
7:00 AM34 °FOvercast.2 mph72%29.84 "Hg9 mi
6:00 AM35 °FPassing clouds.2 mph72%29.83 "Hg10 mi
5:00 AM35 °FClear.3 mph71%29.83 "Hg11 mi
4:00 AM36 °FClear.3 mph70%29.84 "Hg11 mi
3:00 AM37 °FPassing clouds.3 mph67%29.85 "Hg11 mi
2:00 AM37 °FClear.3 mph66%29.87 "Hg11 mi
1:00 AM38 °FPassing clouds.5 mph63%29.89 "Hg14 mi
Weather by CustomWeather, © 2015

See weather overviewHow to use our weather pages